Flag for U.S.A. Weather past 2 weeks in Spartanburg, South Carolina, U.S.A.

Now
N/A

Fog.


Feels Like: N/A
Forecast: 60 / 75 °F
Wind: 6 mph from North

Location: Spartanburg Memorial

Current Time: Apr 26, 2015 at 12:46:00 AM

Latest Report: Apr 25, 2015 at 11:15 PM


Visibility: 2 mi

Pressure: 29.62 "Hg

Humidity: N/A

Dew point: N/A

Location of SpartanburgLocation

Historic Weather in Spartanburg — Graph

°F

Spartanburg temperature yesterday

Maximum temperature yesterday: 59 °F (at 5:15 AM)
Minimum temperature yesterday: 55 °F (at 12:15 AM)
Average temperature yesterday: 56 °F

Past Weeks' High & Low Weather Summary

 TemperatureHumidityPressure
High82 °F (Apr 14, 5:15 PM)100% (Apr 11, 2:35 AM)30.35 "Hg (Apr 11, 2:35 AM)
Low45 °F (Apr 24, 6:55 AM)12% (Apr 11, 4:15 PM)29.59 "Hg (Apr 25, 9:35 PM)
Average64 °F70%30.00 "Hg
* Reported Apr 10 11:15 PM — Apr 25 11:15 PM, Spartanburg, Weather by CustomWeather, © 2015

Note: Actual official high and low records may vary slightly from our data, if they occured in-between our weather recording intervals... More about our weather records

Advertising

Spartanburg weather history for previous 24 hours

 ConditionsComfort  
Time TempWeatherWind HumidityBarometerVisibility
11:15 PM
Sat, Apr 25
N/AFog.6 mphN/A29.62 "Hg2 mi
10:55 PMN/AFog.7 mphN/A29.62 "Hg2 mi
10:35 PMN/AFog.No windN/A29.61 "Hg1 mi
10:15 PMN/AFog.No windN/A29.60 "Hg2 mi
9:55 PMN/AFog.No windN/A29.60 "Hg2 mi
9:35 PMN/AFog.No windN/A29.59 "Hg3 mi
9:15 PMN/AClear.No windN/A29.60 "Hg4 mi
8:55 PMN/ASunny.No windN/A29.60 "Hg5 mi
8:35 PMN/ASunny.3 mphN/A29.62 "Hg7 mi
8:15 PMN/ASunny.6 mphN/A29.62 "Hg7 mi
7:55 PMN/ASunny.6 mphN/A29.62 "Hg7 mi
7:35 PMN/ASunny.6 mphN/A29.61 "Hg7 mi
7:15 PMN/ASunny.3 mphN/A29.62 "Hg10 mi
6:55 PMN/ASunny.5 mphN/A29.63 "Hg10 mi
6:35 PMN/ASunny.5 mphN/A29.64 "Hg7 mi
6:15 PMN/AScattered clouds.No windN/A29.65 "Hg5 mi
5:15 PMN/AFog.3 mphN/A29.68 "Hg2 mi
4:55 PMN/AFog.No windN/A29.68 "Hg2 mi
4:35 PMN/AScattered clouds.No windN/A29.69 "Hg4 mi
4:15 PMN/AFog.No windN/A29.70 "Hg3 mi
3:55 PMN/ADrizzle.No windN/A29.70 "Hg2 mi
3:35 PMN/ADrizzle.No windN/A29.72 "Hg1 mi
3:15 PMN/ADrizzle.3 mphN/A29.73 "Hg1 mi
2:55 PMN/AFog.3 mphN/A29.74 "Hg3 mi
2:35 PMN/ASunny.3 mphN/A29.75 "Hg4 mi
2:15 PMN/AScattered clouds.5 mphN/A29.75 "Hg5 mi
1:55 PMN/AScattered clouds.5 mphN/A29.75 "Hg5 mi
1:35 PMN/AScattered clouds.No windN/A29.76 "Hg7 mi
1:15 PMN/AScattered clouds.No windN/A29.77 "Hg7 mi
12:55 PMN/AScattered clouds.No windN/A29.79 "Hg10 mi
12:35 PMN/AScattered clouds.No windN/A29.78 "Hg10 mi
12:15 PMN/APartly sunny.No windN/A29.80 "Hg10 mi
11:55 AMN/APartly sunny.No windN/A29.81 "Hg10 mi
11:35 AMN/APartly sunny.No windN/A29.82 "Hg10 mi
11:15 AMN/APartly sunny.3 mphN/A29.83 "Hg10 mi
10:55 AMN/ALow clouds.6 mphN/A29.83 "Hg10 mi
10:35 AMN/ALight rain.No windN/A29.82 "Hg10 mi
10:15 AMN/ADrizzle.5 mphN/A29.83 "Hg10 mi
9:55 AMN/ARain.3 mphN/A29.85 "Hg5 mi
9:35 AMN/ALight rain.3 mphN/A29.87 "Hg5 mi
9:15 AM55 °FLight rain. Cloudy.5 mph100%29.89 "Hg5 mi
8:55 AM55 °FLight rain. Cloudy.6 mph100%29.90 "Hg5 mi
8:35 AM55 °FRain. Cloudy.5 mph100%29.90 "Hg7 mi
8:15 AM55 °FLight rain. Mostly cloudy.6 mph100%29.91 "Hg7 mi
7:55 AM55 °FRain. Mostly cloudy.7 mph100%29.91 "Hg7 mi
7:35 AM55 °FRain. Mostly cloudy.6 mph100%29.91 "Hg10 mi
7:15 AM55 °FLight rain. Overcast.7 mph100%29.90 "Hg10 mi
6:55 AM55 °FLight rain. Partly cloudy.6 mph100%29.90 "Hg10 mi
6:35 AM55 °FLight rain. Partly cloudy.5 mph94%29.89 "Hg10 mi
6:15 AM55 °FRain. Mostly cloudy.6 mph82%29.89 "Hg10 mi
5:55 AM57 °FPartly cloudy.7 mph72%29.89 "Hg10 mi
5:35 AM59 °FClear.7 mph63%29.89 "Hg10 mi
5:15 AM59 °FClear.3 mph59%29.88 "Hg10 mi
4:55 AM57 °FLight rain. Clear.No wind72%29.89 "Hg10 mi
4:35 AM55 °FClear.No wind82%29.89 "Hg10 mi
4:15 AM55 °FClear.No wind88%29.89 "Hg10 mi
3:55 AM55 °FClear.No wind88%29.90 "Hg10 mi
3:35 AM55 °FClear.No wind100%29.90 "Hg10 mi
3:15 AM55 °FLight rain. Clear.No wind88%29.90 "Hg10 mi
2:55 AM55 °FClear.No wind88%29.90 "Hg10 mi
2:35 AM55 °FClear.No wind82%29.90 "Hg10 mi
2:15 AM55 °FClear.No wind77%29.92 "Hg10 mi
1:55 AM55 °FClear.No wind82%29.93 "Hg10 mi
1:35 AM55 °FClear.No wind77%29.92 "Hg10 mi
1:15 AM55 °FClear.No wind72%29.94 "Hg10 mi
12:55 AM55 °FClear.No wind72%29.94 "Hg10 mi
12:35 AM55 °FClear.No wind67%29.95 "Hg10 mi
12:15 AM55 °FClear.No wind72%29.95 "Hg10 mi
Weather by CustomWeather, © 2015

See weather overviewHow to use our weather pages